Moose Lake, MN

2:37 PM CDT on March 30, 2017 (GMT -0500)
Moose Lake-Carlton County

Weather History for KMZH - December, 2012

Change the Weather History Date:

Saturday, December 1, 2012

  Actual Average Record
Temperature  
Mean Temperature 34 °F -  
Max Temperature 35 °F 28 °F 57 °F (1962)
Min Temperature 32 °F 10 °F -20 °F (1975)
Degree Days  
Heating Degree Days 32    
Moisture  
Dew Point 31 °F    
Average Humidity 89    
Maximum Humidity 93    
Minimum Humidity 80    
Precipitation  
Precipitation 0.00 in - - ()
Sea Level Pressure  
Sea Level Pressure 29.81 in    
Wind  
Wind Speed 5 mph (South)    
Max Wind Speed 10 mph    
Max Gust Speed 17 mph    
Visibility 1 miles    
Events Fog    
Averages and records for this station are not official NWS values.
T = Trace of Precipitation, MM = Missing Value Source: NWS Daily Summary

Daily Weather History Graph

Daily Weather History Graph

Search for Another Location

Airport or City:

Trip Planner

Search our weather history database for the weather conditions in past years. The results will help you decide how hot, cold, wet, or windy it might be!

Date:

Astronomy

Dec. 01, 2012 Rise Set
Actual Time 7:34 AM CST 4:25 PM CST
Civil Twilight 7:00 AM CST 5:00 PM CST
Nautical Twilight 6:22 AM CST 5:37 PM CST
Astronomical Twilight 5:46 AM CST 6:14 PM CST
Moon 7:19 PM CST (12/1) 9:45 AM CST (12/1)
Length of Visible Light 9h 59m
Length of Day
8h 51m
Waning Gibbous, 91% of the Moon is Illuminated
Dec 1
Waning Gibbous
Dec 6
Last Quarter
Dec 13
New
Dec 19
First Quarter
Dec 28
Full

Hourly Weather History & Observations

Time (CST) Temp. Windchill Dew Point Humidity Pressure Visibility Wind Dir Wind Speed Gust Speed Precip Events Conditions
12:10 AM 32.0 °F 25.6 °F 26.6 °F 80% 30.02 in 4.0 mi SSE 6.9 mph - N/A   Haze
12:30 AM 32.0 °F 24.8 °F 28.4 °F 87% 30.01 in 4.0 mi South 8.1 mph - N/A   Haze
12:50 AM 32.0 °F 24.8 °F 28.4 °F 87% 30.00 in 4.0 mi South 8.1 mph 17.3 mph N/A   Haze
1:11 AM 32.0 °F 24.2 °F 28.4 °F 87% 30.00 in 3.0 mi SSE 9.2 mph - N/A   Haze
1:30 AM 32.0 °F 24.2 °F 28.4 °F 87% 29.99 in 3.0 mi South 9.2 mph 17.3 mph N/A   Haze
1:50 AM 32.0 °F 23.6 °F 28.4 °F 87% 29.97 in 3.0 mi South 10.4 mph 17.3 mph N/A   Haze
2:10 AM 32.0 °F 24.2 °F 28.4 °F 87% 29.97 in 3.0 mi South 9.2 mph - N/A   Haze
2:30 AM 32.0 °F 24.8 °F 28.4 °F 87% 29.98 in 3.0 mi South 8.1 mph - N/A   Haze
2:50 AM 32.0 °F 27.5 °F 28.4 °F 87% 29.97 in 3.0 mi South 4.6 mph - N/A   Haze
3:10 AM 32.0 °F - 28.4 °F 87% 29.97 in 2.5 mi Calm Calm - N/A   Haze
3:31 AM 32.0 °F 27.5 °F 28.4 °F 87% 29.95 in 2.0 mi SSE 4.6 mph - N/A   Haze
3:50 AM 32.0 °F 25.6 °F 28.4 °F 87% 29.93 in 1.5 mi South 6.9 mph - N/A   Haze
4:10 AM 32.0 °F 26.4 °F 28.4 °F 87% 29.91 in 1.2 mi South 5.8 mph - N/A   Haze
4:30 AM 32.0 °F 27.5 °F 30.2 °F 93% 29.90 in 1.0 mi SSE 4.6 mph - N/A   Overcast
4:50 AM 32.0 °F 24.8 °F 30.2 °F 93% 29.89 in 1.0 mi SSE 8.1 mph - N/A   Overcast
5:10 AM 32.0 °F 26.4 °F 30.2 °F 93% 29.87 in 1.2 mi SSE 5.8 mph - N/A   Overcast
5:30 AM 32.0 °F 24.2 °F 30.2 °F 93% 29.86 in 1.2 mi SSE 9.2 mph 16.1 mph N/A   Overcast
6:11 AM 33.8 °F 26.4 °F 30.2 °F 87% 29.85 in 1.8 mi SSE 9.2 mph 16.1 mph N/A   Haze
6:30 AM 33.8 °F 27.0 °F 30.2 °F 87% 29.85 in 1.8 mi SSE 8.1 mph - N/A   Haze
6:50 AM 33.8 °F 28.6 °F 30.2 °F 87% 29.84 in 2.0 mi SSE 5.8 mph - N/A   Haze
7:10 AM 33.8 °F 27.0 °F 30.2 °F 87% 29.84 in 2.0 mi SSE 8.1 mph - N/A   Haze
7:30 AM 33.8 °F 30.8 °F 30.2 °F 87% 29.85 in 2.0 mi South 3.5 mph - N/A   Haze
7:51 AM 33.8 °F 28.6 °F 30.2 °F 87% 29.84 in 2.0 mi SSE 5.8 mph - N/A   Overcast
8:10 AM 33.8 °F 27.7 °F 30.2 °F 87% 29.82 in 1.0 mi SSE 6.9 mph - N/A   Overcast
8:30 AM 33.8 °F 27.0 °F 30.2 °F 87% 29.82 in 1.0 mi SSE 8.1 mph - N/A   Overcast
8:50 AM 33.8 °F 27.7 °F 30.2 °F 87% 29.81 in 0.8 mi SSE 6.9 mph - N/A   Overcast
9:11 AM 33.8 °F 27.7 °F 30.2 °F 87% 29.80 in 1.0 mi SE 6.9 mph - N/A   Overcast
9:30 AM 33.8 °F 27.7 °F 30.2 °F 87% 29.81 in 1.0 mi SSE 6.9 mph - N/A   Overcast
9:50 AM 33.8 °F 29.6 °F 30.2 °F 87% 29.78 in 1.0 mi SE 4.6 mph - N/A   Haze
10:10 AM 33.8 °F 28.6 °F 32.0 °F 93% 29.77 in 1.2 mi South 5.8 mph - N/A   Overcast
10:30 AM 33.8 °F 27.7 °F 32.0 °F 93% 29.77 in 1.0 mi South 6.9 mph - N/A   Overcast
10:50 AM 33.8 °F 27.7 °F 32.0 °F 93% 29.76 in 1.0 mi SSE 6.9 mph - N/A   Overcast
11:10 AM 35.6 °F 31.7 °F 32.0 °F 87% 29.74 in 0.8 mi SSE 4.6 mph - N/A   Haze
11:30 AM 35.6 °F 31.7 °F 32.0 °F 87% 29.75 in 0.8 mi West 4.6 mph - N/A   Haze
11:50 AM 35.6 °F - 32.0 °F 87% 29.74 in 0.8 mi Calm Calm - N/A   Haze
12:10 PM 35.6 °F 32.8 °F 32.0 °F 87% 29.74 in 0.8 mi SSW 3.5 mph - N/A   Haze
12:30 PM 35.6 °F - 32.0 °F 87% 29.72 in 0.5 mi Calm Calm - N/A Fog Fog
12:50 PM 35.6 °F - 32.0 °F 87% 29.72 in 0.5 mi Calm Calm - N/A Fog Fog
1:10 PM 35.6 °F - 32.0 °F 87% 29.70 in 0.5 mi Calm Calm - N/A Fog Fog
1:30 PM 35.6 °F - 32.0 °F 87% 29.70 in 0.5 mi Calm Calm - N/A   Haze
1:50 PM 35.6 °F - 32.0 °F 87% 29.69 in 0.5 mi Calm Calm - N/A   Haze
2:10 PM 35.6 °F 32.8 °F 32.0 °F 87% 29.69 in 0.5 mi South 3.5 mph - N/A   Haze
2:30 PM 35.6 °F 32.8 °F 32.0 °F 87% 29.69 in 0.5 mi South 3.5 mph - N/A   Haze
2:50 PM 35.6 °F 31.7 °F 32.0 °F 87% 29.69 in 0.5 mi South 4.6 mph - N/A   Haze
3:10 PM 35.6 °F - 32.0 °F 87% 29.69 in 0.5 mi Calm Calm - N/A Fog Fog
3:30 PM 35.6 °F - 32.0 °F 87% 29.70 in 0.2 mi Calm Calm - N/A Fog Fog
3:51 PM 35.6 °F - 32.0 °F 87% 29.71 in 0.2 mi Calm Calm - N/A Fog Fog
4:10 PM 35.6 °F - 32.0 °F 87% 29.70 in 0.2 mi Calm Calm - N/A Fog Fog
4:30 PM 35.6 °F - 32.0 °F 87% 29.72 in 0.2 mi Calm Calm - N/A Fog Fog
4:50 PM 35.6 °F - 32.0 °F 87% 29.72 in 0.2 mi Calm Calm - N/A Fog Fog
5:10 PM 35.6 °F - 32.0 °F 87% 29.73 in 0.2 mi Calm Calm - N/A Fog Fog
5:30 PM 35.6 °F - 32.0 °F 87% 29.73 in 0.2 mi Calm Calm - N/A Fog Fog
5:50 PM 35.6 °F - 32.0 °F 87% 29.74 in 0.2 mi Calm Calm - N/A Fog Fog
6:10 PM 33.8 °F - 32.0 °F 93% 29.74 in 0.2 mi Calm Calm - N/A Fog Fog
6:30 PM 33.8 °F - 32.0 °F 93% 29.75 in 0.2 mi Calm Calm - N/A Fog Fog
6:51 PM 33.8 °F - 32.0 °F 93% 29.75 in 0.2 mi Calm Calm - N/A Fog Fog
7:10 PM 33.8 °F - 30.2 °F 87% 29.75 in 0.2 mi Calm Calm - N/A Fog Fog
7:31 PM 33.8 °F - 32.0 °F 93% 29.75 in 1.0 mi Calm Calm - N/A   Overcast
7:50 PM 33.8 °F - 32.0 °F 93% 29.76 in 0.5 mi Calm Calm - N/A Fog Fog
8:11 PM 33.8 °F - 32.0 °F 93% 29.76 in 1.0 mi Calm Calm - N/A   Overcast
8:30 PM 33.8 °F - 32.0 °F 93% 29.76 in 1.2 mi Calm Calm - N/A   Overcast
8:51 PM 33.8 °F - 32.0 °F 93% 29.76 in 1.5 mi Calm Calm - N/A   Overcast
9:30 PM 33.8 °F 29.6 °F 32.0 °F 93% 29.79 in 2.0 mi WNW 4.6 mph - N/A   Overcast
9:51 PM 33.8 °F 30.8 °F 32.0 °F 93% 29.80 in 1.8 mi WNW 3.5 mph - N/A   Overcast
10:10 PM 33.8 °F - 32.0 °F 93% 29.80 in 2.0 mi Calm Calm - N/A   Overcast
10:30 PM 33.8 °F - 32.0 °F 93% 29.80 in 2.0 mi Calm Calm - N/A   Overcast
10:50 PM 33.8 °F - 32.0 °F 93% 29.81 in 1.5 mi Calm Calm - N/A   Overcast
11:10 PM 33.8 °F - 32.0 °F 93% 29.80 in 2.0 mi Calm Calm - N/A   Overcast
11:30 PM 33.8 °F - 32.0 °F 93% 29.81 in 1.8 mi Calm Calm - N/A   Overcast
11:51 PM 33.8 °F 30.8 °F 32.0 °F 93% 29.81 in 2.0 mi NW 3.5 mph - N/A   Overcast